OneWeb SL0018

operational
NORAD ID: 45434 Int'l Des: 2020-020 Owner: ONEWEB Country: UK Constellation: oneweb
LEOCIRCULARPOLARONEWEB_TYPE

Über OneWeb SL0018

Beschreibung wird geladen...

Live-Position

3D-Globus wird geladen...

Nächste Überflüge

Höhenverlauf

Altitude vs Time

uPlot chart will show altitude changes over time

Zweizeiliger Elementsatz

1 45434U 20020L 25258.24434568 .00000499 00000-0 13711-2 0 9999
2 45434 87.8782 75.8342 0001649 88.3116 271.8200 13.11419448266592
Epoch: 15. Sept. 2025 • Age: 9 hours

Aktueller Status

Höhe 1222.5 km
Geschwindigkeit 7.25 km/s
Subsatellitenpunkt 39.85°N, 145.64°W
Startdatum 26. März 2023
Alter 2.4 years
Typ internet

Technische Details

Klassifizierung Payload
Masse 148.00 kg
Trockenmasse 140.00 kg
Gesamtmasse 148.00 kg
Länge 1.30 m
Durchmesser 1.00 m
Spannweite 5.00 m
Form Trapezoid+2 pan
Hersteller ONEWUS
Bus-Typ ARROW
Phasenstatus In Orbit
Besitzer/Staat ONEWEB/UK

Große Konstellationen

Loading constellations...